Regional Weather Roundup
Issued by NWS

Home | Current Version | Previous Version | Text Only | Print | Product List | Glossary Off
Versions: 1 2 3 4 5 6 7 8 9 10 11 12 13 14 15 16 17 18 19 20 21 22 23 24 25 26 27 28 29 30 31 32 33 34 35 36 37 38 39 40 41 42 43 44 45 46 47 48 49 50

000
ASUS45 KABQ 312101
RWRNM
WEATHER ROUNDUP FOR NEW MEXICO
NATIONAL WEATHER SERVICE ALBUQUERQUE NM
300 PM MDT TUE MAR 31 2015

NOTE: "FAIR" MEANS FEW OR NO CLOUDS BELOW 12,000 FEET AGL WITH NO
       SIGNIFICANT WEATHER OR OBSTRUCTIONS TO VISION.

      THIS PRODUCT IS RELEASED AS TWO VERSIONS.  ONE VERSION NEAR
      THE TOP OF THE HOUR CONTAINING PRELIMINARY DATA FROM ALBUQUERQUE
      AND OTHER STATIONS.  A FINAL VERSION WITH ADDITIONAL DATA IS
      ISSUED ABOUT 10 MINUTES AFTER THE HOUR.

NMZ501-503-504-510>518-312200-
NORTHWEST PLATEAU/NORTHCENTRAL MOUNTAINS

CITY           SKY/WX    TMP DP  RH WIND       PRES   REMARKS
FARMINGTON     SUNNY     76  16  10 W9        30.01F
SANTA FE       PTSUNNY   71  14  11 N14G24    30.07F
TAOS           PTSUNNY   68  16  13 W8        30.11F
ANGEL FIRE     FAIR      63  12  14 W8G29     30.16F

$$
NMZ402-403-502-505>509-312200-
WESTCENTRAL MOUNTAINS/SOUTHWEST MOUNTAINS

CITY           SKY/WX    TMP DP  RH WIND       PRES   REMARKS
GALLUP         MOSUNNY   75  14  10 SW15G22   30.09F
GRANTS         PTSUNNY   67  15  13 E9G16     30.12F

$$
NMZ407-409-411-412-312200-
SOUTHERN DESERTS

CITY           SKY/WX    TMP DP  RH WIND       PRES   REMARKS
DEMING         PTSUNNY   81  27  14 NW8       29.98F
HOLLOMAN AFB   PTSUNNY   80  26  13 VRB2      29.96F
ALAMOGORDO     PTSUNNY   81  27  13 CALM      29.98F
T OR C         PTSUNNY   76  26  15 NW23      30.02F

$$
NMZ519>523-312200-
CENTRAL VALLEYS/CENTRAL HIGHLANDS

CITY           SKY/WX    TMP DP  RH WIND       PRES   REMARKS
ALBUQUERQUE    MOSUNNY   77  17  10 VRB6      30.03F
DOUBLE EAGLE   MOSUNNY   75  16  10 S7        30.06F
MORIARTY ARPT  FAIR      72  14  11 W8        30.09F
CLINES CORNERS PTSUNNY   70  14  11 W9        30.10F
BELEN          FAIR      76  15  10 W12       30.02F
SOCORRO        NOT AVBL

$$
NMZ524>526-539-540-312200-
SOUTHCENTRAL MOUNTAINS

CITY           SKY/WX    TMP DP  RH WIND       PRES   REMARKS
RUIDOSO        NOT AVBL

$$
NMZ527>531-312200-
NORTHEAST HIGHLANDS/NORTHEAST PLAINS

CITY           SKY/WX    TMP DP  RH WIND       PRES   REMARKS
LAS VEGAS      PTSUNNY   66  18  15 SW15      30.11F
RATON          MOSUNNY   74   9   8 NW8       30.02F
CLAYTON        SUNNY     78  24  13 VRB3      29.99F

$$
NMZ532>537-312200-
EASTCENTRAL PLAINS

CITY           SKY/WX    TMP DP  RH WIND       PRES   REMARKS
TUCUMCARI      SUNNY     84  14   7 W6        29.92F
CANNON AFB     PTSUNNY   79  25  13 E3        29.95F
CLOVIS AIRPORT PTSUNNY   75  30  19 N15G36    29.96F

$$
NMZ028-029-538-312200-
SOUTHEAST PLAINS

CITY           SKY/WX    TMP DP  RH WIND       PRES   REMARKS
ROSWELL        PTSUNNY   80  33  18 SE7       29.95F
ARTESIA        CLOUDY    82  36  18 S10       29.94F
CARLSBAD       PTSUNNY   82  46  28 W10       29.92F
HOBBS          MOSUNNY   82  39  21 S13G22    29.96F


$$


USA.gov is the U.S. government's official web portal to all federal, state and local government web resources and services.